AD7CQ Weather Reports


Display with metric or nautical units.
time (UTC)temp
F
wind
direction
speed
MPH
gust
MPH
rain 1hr
in
rain 24hr
in
rain mn
in
humidity
%
barometer
mb
20260503194544 83 19 0.0 0.0 0.00 0.00 0.00 30 1009.0
20260503193045 82 19 0.0 2.0 0.00 0.00 0.00 34 1009.2
20260503191538 81 15 1.0 4.0 0.00 0.00 0.00 33 1009.4
20260503190036 80 11 1.0 5.0 0.00 0.00 0.00 35 1009.7
20260503184533 80 359 0.0 0.0 0.00 0.00 0.00 35 1009.9
20260503183027 79 344 0.0 3.0 0.00 0.00 0.00 37 1010.0
20260503181525 78 8 1.0 3.0 0.00 0.00 0.00 38 1010.2
20260503180021 77 343 0.0 3.0 0.00 0.00 0.00 38 1010.3
20260503174519 76 348 1.0 3.0 0.00 0.00 0.00 41 1010.4
20260503173021 75 359 0.0 1.0 0.00 0.00 0.00 44 1010.6
20260503171519 73 327 0.0 3.0 0.00 0.00 0.00 46 1010.7
20260503081530 60 86 0.0 0.0 0.00 0.00 0.00 63 1009.9
20260503071518 63 85 0.0 0.0 0.00 0.00 0.00 55 1009.4
20260503054513 67 80 0.0 0.0 0.00 0.00 0.00 50 1009.0
20260503053012 67 85 0.0 0.0 0.00 0.00 0.00 51 1009.0
20260503051515 68 83 0.0 3.0 0.00 0.00 0.00 49 1008.8
20260503050017 68 95 1.0 3.0 0.00 0.00 0.00 49 1008.7
20260503044513 69 38 0.0 2.0 0.00 0.00 0.00 48 1008.7
20260503043011 70 50 0.0 3.0 0.00 0.00 0.00 46 1008.6
20260503041511 72 95 0.0 3.0 0.00 0.00 0.00 45 1008.5
20260503040009 73 97 0.0 3.0 0.00 0.00 0.00 44 1008.2
20260503034510 74 244 1.0 3.0 0.00 0.00 0.00 43 1008.1
20260503033009 75 359 1.0 3.0 0.00 0.00 0.00 43 1007.9
20260503031511 76 359 0.0 5.0 0.00 0.00 0.00 41 1007.7
20260503030008 78 298 0.0 3.0 0.00 0.00 0.00 39 1007.5
20260503024508 81 4 1.0 4.0 0.00 0.00 0.00 34 1007.4
20260503023007 83 12 0.0 3.0 0.00 0.00 0.00 29 1007.2
20260503021509 84 4 1.0 7.0 0.00 0.00 0.00 27 1007.2
20260503020007 85 8 1.0 4.0 0.00 0.00 0.00 25 1007.1
20260503014506 85 28 1.0 9.0 0.00 0.00 0.00 23 1007.0
20260503013006 86 16 1.0 8.0 0.00 0.00 0.00 22 1007.1
20260503011504 87 4 1.0 6.0 0.00 0.00 0.00 21 1007.2
20260503010005 88 8 2.0 6.0 0.00 0.00 0.00 20 1007.2
20260503004503 88 29 1.0 5.0 0.00 0.00 0.00 19 1007.3
20260503003002 88 4 0.0 4.0 0.00 0.00 0.00 20 1007.3
20260503001502 88 18 1.0 8.0 0.00 0.00 0.00 20 1007.3
20260503000108 88 4 0.0 9.0 0.00 0.00 0.00 21 1007.3
20260503000000 88 4 0.0 9.0 0.00 0.00 0.00 20 1007.3
20260502234603 88 4 1.0 10.0 0.00 0.00 0.00 20 1007.4
20260502233057 88 60 1.0 7.0 0.00 0.00 0.00 22 1007.5
20260502231556 88 38 2.0 3.0 0.00 0.00 0.00 24 1007.7
20260502230054 88 54 1.0 5.0 0.00 0.00 0.00 25 1007.9
20260502224555 88 4 0.0 4.0 0.00 0.00 0.00 26 1008.2
20260502223050 88 15 1.0 6.0 0.00 0.00 0.00 26 1008.3
20260502221550 88 359 1.0 12.0 0.00 0.00 0.00 26 1008.5
20260502220044 87 359 0.0 3.0 0.00 0.00 0.00 28 1008.7
20260502214551 86 27 1.0 9.0 0.00 0.00 0.00 27 1008.9
20260502213037 86 31 0.0 2.0 0.00 0.00 0.00 30 1009.0
20260502211536 85 4 1.0 4.0 0.00 0.00 0.00 30 1009.2
20260502210046 85 24 2.0 10.0 0.00 0.00 0.00 31 1009.4
20260502204531 84 8 1.0 6.0 0.00 0.00 0.00 32 1009.6
20260502203025 82 14 0.0 4.0 0.00 0.00 0.00 36 1009.8
20260502201524 82 16 0.0 4.0 0.00 0.00 0.00 34 1010.0
20260502200020 82 293 0.0 4.0 0.00 0.00 0.00 36 1010.2